Location: Cz?stochówka
(50.8142°N, 19.0915°E)
Time: 09:46:50
(UTC+00:00)

Cosmos 1953 - Pass Details

Date: 13 January 2026
Orbit: 474 x 489 km, 82.5° (Epoch: 17 February)

Event Time Altitude Azimuth Distance (km) Brightness Sun altitude
Rises 05:29:13 0° 170° (S) 2,531 6.2 -10.9°
Reaches altitude 10° 05:31:23 10° 163° (SSE) 1,660 5.3 -10.6°
Maximum altitude 05:34:47 39° 93° (E) 743 3.6 -10.1°
Drops below altitude 10° 05:38:14 10° 24° (NNE) 1,685 4.8 -9.6°
Sets 05:40:26 0° 17° (NNE) 2,575 5.7 -9.3°
